This is the latest recevied weather packets stored in our database for station/object IU1TLK-10. If no packets are shown the sender has not sent any weather packets the latest 10 day(s).
| Time | Temp. | Humidity | Pressure | Rain* | Wind** | Luminosity | Snow |
|---|---|---|---|---|---|---|---|
| 1777816113 | 18.33° C | 36% | 1019.7 hPa | - | - | - | - |
| 1777814313 | 17.78° C | 37% | 1019.8 hPa | - | - | - | - |
| 1777812513 | 17.78° C | 35% | 1020 hPa | - | - | - | - |
| 1777810713 | 17.78° C | 34% | 1020.3 hPa | - | - | - | - |
| 1777808912 | 18.33° C | 37% | 1020.4 hPa | - | - | - | - |
| 1777807112 | 17.78° C | 39% | 1020.5 hPa | - | - | - | - |
| 1777805312 | 17.22° C | 37% | 1020.8 hPa | - | - | - | - |
| 1777803512 | 17.22° C | 38% | 1021 hPa | - | - | - | - |
| 1777801712 | 17.22° C | 43% | 1021 hPa | - | - | - | - |
| 1777799911 | 16.67° C | 48% | 1021.6 hPa | - | - | - | - |
| 1777798112 | 15° C | 54% | 1021.7 hPa | - | - | - | - |
| 1777796312 | 13.89° C | 55% | 1021.8 hPa | - | - | - | - |
| 1777794512 | 13.89° C | 51% | 1021.5 hPa | - | - | - | - |
| 1777792712 | 13.89° C | 47% | 1021.5 hPa | - | - | - | - |
| 1777790911 | 13.33° C | 49% | 1021.6 hPa | - | - | - | - |
| 1777789111 | 11.67° C | 52% | 1021.9 hPa | - | - | - | - |
| 1777787311 | 10.56° C | 54% | 1021.5 hPa | - | - | - | - |
| 1777785511 | 10.56° C | 54% | 1021.7 hPa | - | - | - | - |
| 1777783711 | 10.56° C | 53% | 1021.5 hPa | - | - | - | - |
| 1777781910 | 10.56° C | 55% | 1021.4 hPa | - | - | - | - |
| 1777780110 | 10.56° C | 54% | 1021.5 hPa | - | - | - | - |
| 1777778310 | 10.56° C | 53% | 1021.5 hPa | - | - | - | - |
| 1777776511 | 10.56° C | 54% | 1021.6 hPa | - | - | - | - |
| 1777774711 | 11.11° C | 55% | 1021.8 hPa | - | - | - | - |
| 1777772911 | 11.11° C | 55% | 1021.8 hPa | - | - | - | - |
* Rain since midnight (hover to see other rain measurements)
** Current wind speed in m/s (hover to see current wind gust speed)